Home   Weather   Wiesbaden   Past weeks

Flag for Germany Past Weather in Wiesbaden, Hesse, Germany — Yesterday and Last 2 Weeks

Now
61 °F

More clouds than sun.


Feels Like: 61 °F
Forecast: 61 / 72 °F
Wind: 9 mph from Northwest

Location: Wiesbaden Airport

Current Time: Jul 26, 2017 at 8:50:13 am

Latest Report: Jul 26, 2017 at 7:58 am


Visibility: N/A

Pressure: 29.76 "Hg

Humidity: 88%

Dew Point: 57 °F

Location of WiesbadenLocation

Past Weather in Wiesbaden — Graph

°F

Wiesbaden Temperature Yesterday

Maximum temperature yesterday: 61 °F (at 1:58 pm)
Minimum temperature yesterday: 56 °F (at 12:58 am)
Average temperature yesterday: 59 °F

High & Low Weather Summary for the Past Weeks

 TemperatureHumidityPressure
High93 °F (Jul 19, 4:58 pm)100% (Jul 12, 10:58 am)30.27 "Hg (Jul 12, 10:58 am)
Low48 °F (Jul 13, 3:58 am)33% (Jul 14, 3:58 pm)29.69 "Hg (Jul 25, 11:38 pm)
Average67 °F74%29.95 "Hg
* Reported Jul 11 6:08 am — Jul 26 6:58 am, Wiesbaden. Weather by CustomWeather, © 2017

Note: Actual official high and low records may vary slightly from our data, if they occured in-between our weather recording intervals... More about our weather records

Advertising

Wiesbaden Weather History for the Previous 24 Hours

Scroll right to see more
 ConditionsComfort  
Time TempWeatherWind HumidityBarometerVisibility
6:58 am
Wed, Jul 26
60 °FOvercast.14 mph86%29.75 "HgN/A
5:58 am59 °FOvercast.13 mph88%29.74 "HgN/A
4:58 am59 °FMostly cloudy.12 mph86%29.74 "HgN/A
4:28 am59 °FMostly cloudy.8 mph88%29.74 "HgN/A
3:58 am59 °FMostly cloudy.13 mph88%29.73 "HgN/A
3:05 am59 °FMostly cloudy.10 mph88%29.73 "HgN/A
1:58 am60 °FOvercast.10 mph89%29.71 "HgN/A
1:29 am61 °FPartly cloudy.9 mph88%29.70 "HgN/A
12:58 am60 °FLight rain. Mostly cloudy.13 mph92%29.70 "HgN/A
12:38 am59 °FLight rain. Mostly cloudy.14 mph94%29.69 "HgN/A
12:18 am59 °FLight rain. Passing clouds.13 mph94%29.69 "HgN/A
11:58 pm
Tue, Jul 25
59 °FLight rain. Partly cloudy.13 mph94%29.69 "HgN/A
11:38 pm59 °FLight rain. Partly cloudy.10 mph94%29.69 "HgN/A
10:58 pm59 °FLight rain. Mostly cloudy.9 mph94%29.70 "HgN/A
10:38 pm59 °FLight rain. Mostly cloudy.10 mph94%29.70 "HgN/A
9:58 pm59 °FLight rain. Overcast.12 mph92%29.71 "HgN/A
9:08 pm59 °FLight rain. Broken clouds.10 mph94%29.72 "HgN/A
8:58 pm59 °FLight rain. Broken clouds.9 mph92%29.73 "HgN/A
8:18 pm59 °FLight rain. Broken clouds.10 mph94%29.73 "HgN/A
7:58 pm59 °FLight rain. Broken clouds.10 mph94%29.74 "HgN/A
7:38 pm59 °FLight rain. Passing clouds.8 mph94%29.74 "HgN/A
7:27 pm59 °FSunny.10 mph94%29.74 "HgN/A
7:18 pm59 °FLight rain. Passing clouds.9 mph94%29.74 "HgN/A
6:58 pm59 °FLight rain. Broken clouds.12 mph94%29.75 "HgN/A
6:28 pm59 °FLight rain. Broken clouds.10 mph94%29.75 "HgN/A
6:18 pm59 °FLight rain. Mostly cloudy.12 mph94%29.76 "HgN/A
5:58 pm59 °FLight rain. Mostly cloudy.9 mph94%29.77 "HgN/A
5:20 pm61 °FLight rain. Passing clouds.10 mph88%29.77 "HgN/A
4:59 pm61 °FSunny.9 mph88%29.77 "HgN/A
3:58 pm61 °FLight rain. Broken clouds.7 mph88%29.78 "HgN/A
3:29 pm61 °FLight rain. Passing clouds.9 mph88%29.78 "HgN/A
2:58 pm61 °FLight rain. Passing clouds.7 mph88%29.78 "HgN/A
2:26 pm61 °FLight rain. Scattered clouds.8 mph88%29.78 "HgN/A
1:58 pm61 °FLight rain. Mostly cloudy.9 mph88%29.79 "HgN/A
1:28 pm59 °FLight rain. Broken clouds.8 mph94%29.79 "HgN/A
12:58 pm59 °FLight rain. Partly sunny.10 mph94%29.79 "HgN/A
12:08 pm59 °FLight rain. Partly sunny.10 mph88%29.79 "HgN/A
11:58 am59 °FLight rain. Partly sunny.12 mph88%29.79 "HgN/A
11:38 am59 °FLight rain. Mostly cloudy.10 mph88%29.79 "HgN/A
10:58 am59 °FLight rain. Scattered clouds.8 mph88%29.79 "HgN/A
10:34 am57 °FLight rain. Passing clouds.8 mph88%29.79 "HgN/A
9:58 am59 °FLight rain. Broken clouds.9 mph82%29.79 "HgN/A
9:33 am59 °FMore clouds than sun.8 mph82%29.80 "HgN/A
9:04 am57 °FLight rain. Mostly cloudy.6 mph94%29.79 "HgN/A
8:40 am57 °FMostly cloudy.7 mph94%29.80 "HgN/A
8:29 am57 °FLight rain. Mostly cloudy.8 mph94%29.79 "HgN/A
8:18 am57 °FMostly cloudy.8 mph94%29.79 "HgN/A
Weather by CustomWeather, © 2017

See weather overviewHow to use our weather pages